Year,Month,Day,Hour,Minute,Value (Times are PST for temperature in C)
2003,03,10,00,00,8.80
2003,03,10,00,01,8.70
2003,03,10,00,02,8.80
2003,03,10,00,03,8.80
2003,03,10,00,04,8.80
2003,03,10,00,05,8.80
2003,03,10,00,06,8.80
2003,03,10,00,07,8.80
2003,03,10,00,08,8.80
2003,03,10,00,09,8.80
2003,03,10,00,10,8.80
2003,03,10,00,11,8.70
2003,03,10,00,12,8.70
2003,03,10,00,13,8.70
2003,03,10,00,14,8.70
2003,03,10,00,15,8.70
2003,03,10,00,16,8.70
2003,03,10,00,17,8.70
2003,03,10,00,18,8.70
2003,03,10,00,19,8.70
2003,03,10,00,20,8.70
2003,03,10,00,21,8.70
2003,03,10,00,22,8.70
2003,03,10,00,23,8.70
2003,03,10,00,24,8.70
2003,03,10,00,25,8.70
2003,03,10,00,26,8.60
2003,03,10,00,27,8.60
2003,03,10,00,28,8.60
2003,03,10,00,29,8.60
2003,03,10,00,30,8.60
2003,03,10,00,31,8.50
2003,03,10,00,32,8.50
2003,03,10,00,33,8.50
2003,03,10,00,34,8.50
2003,03,10,00,35,8.50
2003,03,10,00,36,8.50
2003,03,10,00,37,8.40
2003,03,10,00,38,8.30
2003,03,10,00,39,8.30
2003,03,10,00,40,8.30
2003,03,10,00,41,8.40
2003,03,10,00,42,8.30
2003,03,10,00,43,8.30
2003,03,10,00,44,8.30
2003,03,10,00,45,8.30
2003,03,10,00,46,8.40
2003,03,10,00,47,8.30
2003,03,10,00,48,8.30
2003,03,10,00,49,8.40
2003,03,10,00,50,8.40
2003,03,10,00,51,8.30
2003,03,10,00,52,8.40
2003,03,10,00,53,8.40
2003,03,10,00,54,8.40
2003,03,10,00,55,8.40
2003,03,10,00,56,8.40
2003,03,10,00,57,8.40
2003,03,10,00,58,8.50
2003,03,10,00,59,8.50
2003,03,10,01,00,8.50
2003,03,10,01,01,8.50
2003,03,10,01,02,8.50
2003,03,10,01,03,8.50
2003,03,10,01,04,8.50
2003,03,10,01,05,8.50
2003,03,10,01,06,8.50
2003,03,10,01,07,8.50
2003,03,10,01,08,8.50
2003,03,10,01,09,8.50
2003,03,10,01,10,8.60
2003,03,10,01,11,8.60
2003,03,10,01,12,8.60
2003,03,10,01,13,8.60
2003,03,10,01,14,8.60
2003,03,10,01,15,8.60
2003,03,10,01,16,8.60
2003,03,10,01,17,8.60
2003,03,10,01,18,8.60
2003,03,10,01,19,8.60
2003,03,10,01,20,8.60
2003,03,10,01,21,8.60
2003,03,10,01,22,8.60
2003,03,10,01,23,8.60
2003,03,10,01,24,8.60
2003,03,10,01,25,8.60
2003,03,10,01,26,8.60
2003,03,10,01,27,8.50
2003,03,10,01,28,8.50
2003,03,10,01,29,8.50
2003,03,10,01,30,8.50
2003,03,10,01,31,8.50
2003,03,10,01,32,8.50
2003,03,10,01,33,8.50
2003,03,10,01,34,8.50
2003,03,10,01,35,8.50
2003,03,10,01,36,8.50
2003,03,10,01,37,8.50
2003,03,10,01,38,8.50
2003,03,10,01,39,8.50
2003,03,10,01,40,8.50
2003,03,10,01,41,8.50
2003,03,10,01,42,8.50
2003,03,10,01,43,8.50
2003,03,10,01,44,8.50
2003,03,10,01,45,8.50
2003,03,10,01,46,8.50
2003,03,10,01,47,8.50
2003,03,10,01,48,8.50
2003,03,10,01,49,8.50
2003,03,10,01,50,8.50
2003,03,10,01,51,8.50
2003,03,10,01,52,8.50
2003,03,10,01,53,8.50
2003,03,10,01,54,8.40
2003,03,10,01,55,8.30
2003,03,10,01,56,8.30
2003,03,10,01,57,8.30
2003,03,10,01,58,8.30
2003,03,10,01,59,8.20
2003,03,10,02,00,8.20
2003,03,10,02,01,8.20
2003,03,10,02,02,8.20
2003,03,10,02,03,8.20
2003,03,10,02,04,8.20
2003,03,10,02,05,8.10
2003,03,10,02,06,8.10
2003,03,10,02,07,8.10
2003,03,10,02,08,8.10
2003,03,10,02,09,8.10
2003,03,10,02,10,8.10
2003,03,10,02,11,8.10
2003,03,10,02,12,8.10
2003,03,10,02,13,8.10
2003,03,10,02,14,8.00
2003,03,10,02,15,8.00
2003,03,10,02,16,8.00
2003,03,10,02,17,8.00
2003,03,10,02,18,8.00
2003,03,10,02,19,8.00
2003,03,10,02,20,8.00
2003,03,10,02,21,8.00
2003,03,10,02,22,8.00
2003,03,10,02,23,8.00
2003,03,10,02,24,8.00
2003,03,10,02,25,8.10
2003,03,10,02,26,8.10
2003,03,10,02,27,8.10
2003,03,10,02,28,8.10
2003,03,10,02,29,8.10
2003,03,10,02,30,8.00
2003,03,10,02,31,8.10
2003,03,10,02,32,8.10
2003,03,10,02,33,8.10
2003,03,10,02,34,8.10
2003,03,10,02,35,8.10
2003,03,10,02,36,8.10
2003,03,10,02,37,8.10
2003,03,10,02,38,8.10
2003,03,10,02,39,8.10
2003,03,10,02,40,8.10
2003,03,10,02,41,8.10
2003,03,10,02,42,8.10
2003,03,10,02,43,8.10
2003,03,10,02,44,8.10
2003,03,10,02,45,8.10
2003,03,10,02,46,8.20
2003,03,10,02,47,8.20
2003,03,10,02,48,8.20
2003,03,10,02,49,8.20
2003,03,10,02,50,8.20
2003,03,10,02,51,8.20
2003,03,10,02,52,8.10
2003,03,10,02,53,8.10
2003,03,10,02,54,8.10
2003,03,10,02,55,8.10
2003,03,10,02,56,8.10
2003,03,10,02,57,8.10
2003,03,10,02,58,8.20
2003,03,10,02,59,8.20
2003,03,10,03,00,8.20
2003,03,10,03,01,8.20
2003,03,10,03,02,8.20
2003,03,10,03,03,8.20
2003,03,10,03,04,8.20
2003,03,10,03,05,8.20
2003,03,10,03,06,8.20
2003,03,10,03,07,8.20
2003,03,10,03,08,8.20
2003,03,10,03,09,8.20
2003,03,10,03,10,8.20
2003,03,10,03,11,8.20
2003,03,10,03,12,8.20
2003,03,10,03,13,8.20
2003,03,10,03,14,8.20
2003,03,10,03,15,8.20
2003,03,10,03,16,8.20
2003,03,10,03,17,8.20
2003,03,10,03,18,8.20
2003,03,10,03,19,8.20
2003,03,10,03,20,8.20
2003,03,10,03,21,8.20
2003,03,10,03,22,8.20
2003,03,10,03,23,8.20
2003,03,10,03,24,8.20
2003,03,10,03,25,8.20
2003,03,10,03,26,8.20
2003,03,10,03,27,8.20
2003,03,10,03,28,8.20
2003,03,10,03,29,8.20
2003,03,10,03,30,8.20
2003,03,10,03,31,8.20
2003,03,10,03,32,8.20
2003,03,10,03,33,8.20
2003,03,10,03,34,8.20
2003,03,10,03,35,8.20
2003,03,10,03,36,8.30
2003,03,10,03,37,8.30
2003,03,10,03,38,8.30
2003,03,10,03,39,8.30
2003,03,10,03,40,8.30
2003,03,10,03,41,8.30
2003,03,10,03,42,8.30
2003,03,10,03,43,8.30
2003,03,10,03,44,8.30
2003,03,10,03,45,8.30
2003,03,10,03,46,8.30
2003,03,10,03,47,8.30
2003,03,10,03,48,8.30
2003,03,10,03,49,8.30
2003,03,10,03,50,8.30
2003,03,10,03,51,8.30
2003,03,10,03,52,8.30
2003,03,10,03,53,8.30
2003,03,10,03,54,8.30
2003,03,10,03,55,8.30
2003,03,10,03,56,8.30
2003,03,10,03,57,8.30
2003,03,10,03,58,8.30
2003,03,10,03,59,8.30
2003,03,10,04,00,8.30
2003,03,10,04,01,8.30
2003,03,10,04,02,8.30
2003,03,10,04,03,8.40
2003,03,10,04,04,8.40
2003,03,10,04,05,8.40
2003,03,10,04,06,8.40
2003,03,10,04,07,8.40
2003,03,10,04,08,8.40
2003,03,10,04,09,8.40
2003,03,10,04,10,8.40
2003,03,10,04,11,8.40
2003,03,10,04,12,8.40
2003,03,10,04,13,8.40
2003,03,10,04,14,8.40
2003,03,10,04,15,8.40
2003,03,10,04,16,8.40
2003,03,10,04,17,8.40
2003,03,10,04,18,8.40
2003,03,10,04,19,8.40
2003,03,10,04,20,8.40
2003,03,10,04,21,8.40
2003,03,10,04,22,8.40
2003,03,10,04,23,8.40
2003,03,10,04,24,8.40
2003,03,10,04,25,8.40
2003,03,10,04,26,8.40
2003,03,10,04,27,8.40
2003,03,10,04,28,8.40
2003,03,10,04,29,8.40
2003,03,10,04,30,8.40
2003,03,10,04,31,8.40
2003,03,10,04,32,8.40
2003,03,10,04,33,8.40
2003,03,10,04,34,8.30
2003,03,10,04,35,8.30
2003,03,10,04,36,8.30
2003,03,10,04,37,8.30
2003,03,10,04,38,8.40
2003,03,10,04,39,8.40
2003,03,10,04,40,8.40
2003,03,10,04,41,8.40
2003,03,10,04,42,8.40
2003,03,10,04,43,8.30
2003,03,10,04,44,8.30
2003,03,10,04,45,8.30
2003,03,10,04,46,8.30
2003,03,10,04,47,8.30
2003,03,10,04,48,8.30
2003,03,10,04,49,8.30
2003,03,10,04,50,8.30
2003,03,10,04,51,8.30
2003,03,10,04,52,8.30
2003,03,10,04,53,8.30
2003,03,10,04,54,8.30
2003,03,10,04,55,8.30
2003,03,10,04,56,8.30
2003,03,10,04,57,8.30
2003,03,10,04,58,8.20
2003,03,10,04,59,8.20
2003,03,10,05,00,8.20
2003,03,10,05,01,8.20
2003,03,10,05,02,8.20
2003,03,10,05,03,8.20
2003,03,10,05,04,8.20
2003,03,10,05,05,8.20
2003,03,10,05,06,8.20
2003,03,10,05,07,8.20
2003,03,10,05,08,8.20
2003,03,10,05,09,8.20
2003,03,10,05,10,8.20
2003,03,10,05,11,8.20
2003,03,10,05,12,8.20
2003,03,10,05,13,8.30
2003,03,10,05,14,8.30
2003,03,10,05,15,8.20
2003,03,10,05,16,8.20
2003,03,10,05,17,8.20
2003,03,10,05,18,8.20
2003,03,10,05,19,8.20
2003,03,10,05,20,8.20
2003,03,10,05,21,8.20
2003,03,10,05,22,8.20
2003,03,10,05,23,8.20
2003,03,10,05,24,8.20
2003,03,10,05,25,8.20
2003,03,10,05,26,8.20
2003,03,10,05,27,8.20
2003,03,10,05,28,8.20
2003,03,10,05,29,8.20
2003,03,10,05,30,8.20
2003,03,10,05,31,8.20
2003,03,10,05,32,8.20
2003,03,10,05,33,8.20
2003,03,10,05,34,8.20
2003,03,10,05,35,8.20
2003,03,10,05,36,8.20
2003,03,10,05,37,8.20
2003,03,10,05,38,8.20
2003,03,10,05,39,8.20
2003,03,10,05,40,8.20
2003,03,10,05,41,8.20
2003,03,10,05,42,8.20
2003,03,10,05,43,8.20
2003,03,10,05,44,8.20
2003,03,10,05,45,8.20
2003,03,10,05,46,8.20
2003,03,10,05,47,8.20
2003,03,10,05,48,8.20
2003,03,10,05,49,8.20
2003,03,10,05,50,8.20
2003,03,10,05,51,8.20
2003,03,10,05,52,8.20
2003,03,10,05,53,8.20
2003,03,10,05,54,8.20
2003,03,10,05,55,8.20
2003,03,10,05,56,8.20
2003,03,10,05,57,8.20
2003,03,10,05,58,8.20
2003,03,10,05,59,8.20
2003,03,10,06,00,8.20
2003,03,10,06,01,8.20
2003,03,10,06,02,8.20
2003,03,10,06,03,8.20
2003,03,10,06,04,8.20
2003,03,10,06,05,8.20
2003,03,10,06,06,8.20
2003,03,10,06,07,8.20
2003,03,10,06,08,8.20
2003,03,10,06,09,8.20
2003,03,10,06,10,8.20
2003,03,10,06,11,8.20
2003,03,10,06,12,8.30
2003,03,10,06,13,8.30
2003,03,10,06,14,8.30
2003,03,10,06,15,8.30
2003,03,10,06,16,8.30
2003,03,10,06,17,8.30
2003,03,10,06,18,8.30
2003,03,10,06,19,8.30
2003,03,10,06,20,8.30
2003,03,10,06,21,8.30
2003,03,10,06,22,8.30
2003,03,10,06,23,8.30
2003,03,10,06,24,8.30
2003,03,10,06,25,8.40
2003,03,10,06,26,8.40
2003,03,10,06,27,8.40
2003,03,10,06,28,8.40
2003,03,10,06,29,8.40
2003,03,10,06,30,8.50
2003,03,10,06,31,8.50
2003,03,10,06,32,8.50
2003,03,10,06,33,8.50
2003,03,10,06,34,8.50
2003,03,10,06,35,8.50
2003,03,10,06,36,8.50
2003,03,10,06,37,8.50
2003,03,10,06,38,8.50
2003,03,10,06,39,8.50
2003,03,10,06,40,8.50
2003,03,10,06,41,8.50
2003,03,10,06,42,8.50
2003,03,10,06,43,8.50
2003,03,10,06,44,8.50
2003,03,10,06,45,8.50
2003,03,10,06,46,8.60
2003,03,10,06,47,8.60
2003,03,10,06,48,8.70
2003,03,10,06,49,8.70
2003,03,10,06,50,8.70
2003,03,10,06,51,8.70
2003,03,10,06,52,8.70
2003,03,10,06,53,8.70
2003,03,10,06,54,8.70
2003,03,10,06,55,8.70
2003,03,10,06,56,8.70
2003,03,10,06,57,8.70
2003,03,10,06,58,8.70
2003,03,10,06,59,8.70
2003,03,10,07,00,8.70
2003,03,10,07,01,8.70
2003,03,10,07,02,8.70
2003,03,10,07,03,8.70
2003,03,10,07,04,8.70
2003,03,10,07,05,8.70
2003,03,10,07,06,8.70
2003,03,10,07,07,8.70
2003,03,10,07,08,8.70
2003,03,10,07,09,8.70
2003,03,10,07,10,8.70
2003,03,10,07,11,8.70
2003,03,10,07,12,8.70
2003,03,10,07,13,8.70
2003,03,10,07,14,8.70
2003,03,10,07,15,8.70
2003,03,10,07,16,8.70
2003,03,10,07,17,8.70
2003,03,10,07,18,8.70
2003,03,10,07,19,8.70
2003,03,10,07,20,8.70
2003,03,10,07,21,8.70
2003,03,10,07,22,8.70
2003,03,10,07,23,8.70
2003,03,10,07,24,8.70
2003,03,10,07,25,8.70
2003,03,10,07,26,8.70
2003,03,10,08,35,9.50
2003,03,10,08,36,9.50
2003,03,10,08,37,9.50
2003,03,10,08,38,9.50
2003,03,10,08,39,9.60
2003,03,10,08,40,9.60
2003,03,10,08,41,9.60
2003,03,10,08,42,9.60
2003,03,10,08,43,9.60
2003,03,10,08,44,9.70
2003,03,10,08,45,9.70
2003,03,10,08,46,9.70
2003,03,10,08,47,9.70
2003,03,10,08,48,9.70
2003,03,10,08,49,9.70
2003,03,10,08,50,9.80
2003,03,10,08,51,9.80
2003,03,10,08,52,9.80
2003,03,10,08,53,9.80
2003,03,10,08,54,9.80
2003,03,10,08,55,9.80
2003,03,10,08,56,9.80
2003,03,10,08,57,9.90
2003,03,10,08,58,9.90
2003,03,10,08,59,9.90
2003,03,10,09,00,9.90
2003,03,10,09,01,9.90
2003,03,10,09,02,10.00
2003,03,10,09,03,10.10
2003,03,10,09,04,10.10
2003,03,10,09,05,10.10
2003,03,10,09,06,10.10
2003,03,10,09,07,10.10
2003,03,10,09,08,10.10
2003,03,10,09,09,10.10
2003,03,10,09,10,10.10
2003,03,10,09,11,10.10
2003,03,10,09,12,10.10
2003,03,10,09,13,10.10
2003,03,10,09,14,10.10
2003,03,10,09,15,10.10
2003,03,10,09,16,10.10
2003,03,10,09,17,10.10
2003,03,10,09,18,10.10
2003,03,10,09,19,10.10
2003,03,10,09,20,10.10
2003,03,10,09,21,10.10
2003,03,10,09,22,10.10
2003,03,10,09,23,10.10
2003,03,10,09,24,10.10
2003,03,10,09,25,10.10
2003,03,10,09,26,10.10
2003,03,10,09,27,10.10
2003,03,10,09,28,10.10
2003,03,10,09,29,10.10
2003,03,10,09,30,10.10
2003,03,10,09,31,10.10
2003,03,10,09,32,10.10
2003,03,10,09,33,10.10
2003,03,10,09,34,10.10
2003,03,10,09,35,10.10
2003,03,10,09,36,10.20
2003,03,10,09,37,10.20
2003,03,10,09,38,10.10
2003,03,10,09,39,10.10
2003,03,10,09,40,10.20
2003,03,10,09,41,10.20
2003,03,10,09,42,10.20
2003,03,10,09,43,10.30
2003,03,10,09,44,10.20
2003,03,10,09,45,10.20
2003,03,10,09,46,10.20
2003,03,10,09,47,10.20
2003,03,10,09,48,10.20
2003,03,10,09,49,10.20
2003,03,10,09,50,10.20
2003,03,10,09,51,10.20
2003,03,10,09,52,10.20
2003,03,10,09,53,10.20
2003,03,10,09,54,10.30
2003,03,10,09,55,10.30
2003,03,10,09,56,10.30
2003,03,10,09,57,10.30
2003,03,10,09,58,10.30
2003,03,10,09,59,10.40
2003,03,10,10,00,10.40
2003,03,10,10,01,10.40
2003,03,10,10,02,10.40
2003,03,10,10,03,10.40
2003,03,10,10,04,10.40
2003,03,10,10,05,10.40
2003,03,10,10,06,10.40
2003,03,10,10,07,10.40
2003,03,10,10,08,10.40
2003,03,10,10,09,10.40
2003,03,10,10,10,10.40
2003,03,10,10,11,10.40
2003,03,10,10,12,10.40
2003,03,10,10,13,10.40
2003,03,10,10,14,10.40
2003,03,10,10,15,10.40
2003,03,10,10,16,10.40
2003,03,10,10,17,10.40
2003,03,10,10,18,10.50
2003,03,10,10,19,10.60
2003,03,10,10,20,10.60
2003,03,10,10,21,10.60
2003,03,10,10,22,10.60
2003,03,10,10,23,10.60
2003,03,10,10,24,10.60
2003,03,10,10,25,10.60
2003,03,10,10,26,10.70
2003,03,10,10,27,10.70
2003,03,10,10,28,10.70
2003,03,10,10,29,10.70
2003,03,10,10,30,10.80
2003,03,10,10,31,10.80
2003,03,10,10,32,10.80
2003,03,10,10,33,10.80
2003,03,10,10,34,10.90
2003,03,10,10,35,10.80
2003,03,10,10,36,10.80
2003,03,10,10,37,10.90
2003,03,10,10,38,10.90
2003,03,10,10,39,10.90
2003,03,10,10,40,10.90
2003,03,10,10,41,10.90
2003,03,10,10,42,10.90
2003,03,10,10,43,11.00
2003,03,10,10,44,11.10
2003,03,10,10,45,11.10
2003,03,10,10,46,11.10
2003,03,10,10,47,11.10
2003,03,10,10,48,11.10
2003,03,10,10,49,11.10
2003,03,10,10,50,11.20
2003,03,10,10,51,11.20
2003,03,10,10,52,11.20
2003,03,10,10,53,11.20
2003,03,10,10,54,11.30
2003,03,10,10,55,11.40
2003,03,10,10,56,11.50
2003,03,10,10,57,11.60
2003,03,10,10,58,11.60
2003,03,10,10,59,11.70
2003,03,10,11,00,11.70
2003,03,10,11,01,11.80
2003,03,10,11,02,11.80
2003,03,10,11,03,11.90
2003,03,10,11,04,12.00
2003,03,10,11,05,12.10
2003,03,10,11,06,12.10
2003,03,10,11,07,12.00
2003,03,10,11,08,12.00
2003,03,10,11,09,12.20
2003,03,10,11,10,12.30
2003,03,10,11,11,12.50
2003,03,10,11,12,12.60
2003,03,10,11,13,12.70
2003,03,10,11,14,12.70
2003,03,10,11,15,12.80
2003,03,10,11,16,12.90
2003,03,10,11,17,13.00
2003,03,10,11,18,13.10
2003,03,10,11,19,13.20
2003,03,10,11,20,13.30
2003,03,10,11,21,13.50
2003,03,10,11,22,13.60
2003,03,10,11,23,13.80
2003,03,10,11,24,13.90
2003,03,10,11,25,14.00
2003,03,10,11,26,14.00
2003,03,10,11,27,14.00
2003,03,10,11,28,13.90
2003,03,10,11,29,14.00
2003,03,10,11,30,14.00
2003,03,10,11,31,14.00
2003,03,10,11,32,13.80
2003,03,10,11,33,13.70
2003,03,10,11,34,13.70
2003,03,10,11,35,13.70
2003,03,10,11,36,13.70
2003,03,10,11,37,13.70
2003,03,10,11,38,13.60
2003,03,10,11,39,13.40
2003,03,10,11,40,13.40
2003,03,10,11,41,13.40
2003,03,10,11,42,13.50
2003,03,10,11,43,13.50
2003,03,10,11,44,13.60
2003,03,10,11,45,13.60
2003,03,10,11,46,13.60
2003,03,10,11,47,13.60
2003,03,10,11,48,13.70
2003,03,10,11,49,13.80
2003,03,10,11,50,13.80
2003,03,10,11,51,13.90
2003,03,10,11,52,13.90
2003,03,10,11,53,13.80
2003,03,10,11,54,13.60
2003,03,10,11,55,13.60
2003,03,10,11,56,13.60
2003,03,10,11,57,13.60
2003,03,10,11,58,13.70
2003,03,10,11,59,13.70
2003,03,10,12,00,13.60
2003,03,10,12,01,13.50
2003,03,10,12,02,13.20
2003,03,10,12,03,13.10
2003,03,10,12,04,13.00
2003,03,10,12,05,13.10
2003,03,10,12,06,13.00
2003,03,10,12,07,13.00
2003,03,10,12,08,12.90
2003,03,10,12,09,12.80
2003,03,10,12,10,12.90
2003,03,10,12,11,12.90
2003,03,10,12,12,12.90
2003,03,10,12,13,12.90
2003,03,10,12,14,13.00
2003,03,10,12,15,12.90
2003,03,10,12,16,12.90
2003,03,10,12,17,13.00
2003,03,10,12,18,12.90
2003,03,10,12,19,12.80
2003,03,10,12,20,12.80
2003,03,10,12,21,12.60
2003,03,10,12,22,12.50
2003,03,10,12,23,12.40
2003,03,10,12,24,12.50
2003,03,10,12,25,12.40
2003,03,10,12,26,12.30
2003,03,10,12,27,12.30
2003,03,10,12,28,12.30
2003,03,10,12,29,12.30
2003,03,10,12,30,12.30
2003,03,10,12,31,12.30
2003,03,10,12,32,12.30
2003,03,10,12,33,12.40
2003,03,10,12,34,12.40
2003,03,10,12,35,12.40
2003,03,10,12,36,12.50
2003,03,10,12,37,12.50
2003,03,10,12,38,12.50
2003,03,10,12,39,12.50
2003,03,10,12,40,12.60
2003,03,10,12,41,12.60
2003,03,10,12,42,12.60
2003,03,10,12,43,12.50
2003,03,10,12,44,12.50
2003,03,10,12,45,12.50
2003,03,10,12,46,12.50
2003,03,10,12,47,12.50
2003,03,10,12,48,12.60
2003,03,10,12,49,12.60
2003,03,10,12,50,12.60
2003,03,10,12,51,12.60
2003,03,10,12,52,12.50
2003,03,10,12,53,12.40
2003,03,10,12,54,12.50
2003,03,10,12,55,12.30
2003,03,10,12,56,12.20
2003,03,10,12,57,12.20
2003,03,10,12,58,12.10
2003,03,10,12,59,12.20
2003,03,10,13,00,12.10
2003,03,10,13,01,12.10
2003,03,10,13,02,12.20
2003,03,10,13,03,12.30
2003,03,10,13,04,12.40
2003,03,10,13,05,12.50
2003,03,10,13,06,12.50
2003,03,10,13,07,12.50
2003,03,10,13,08,12.50
2003,03,10,13,09,12.60
2003,03,10,13,10,12.70
2003,03,10,13,11,12.80
2003,03,10,13,12,12.70
2003,03,10,13,13,12.80
2003,03,10,13,14,12.80
2003,03,10,13,15,12.80
2003,03,10,13,16,12.80
2003,03,10,13,17,12.80
2003,03,10,13,18,12.70
2003,03,10,13,19,12.70
2003,03,10,13,20,12.80
2003,03,10,13,21,12.90
2003,03,10,13,22,12.90
2003,03,10,13,23,12.90
2003,03,10,13,24,12.90
2003,03,10,13,25,13.00
2003,03,10,13,26,12.90
2003,03,10,13,27,12.90
2003,03,10,13,28,12.90
2003,03,10,13,29,13.00
2003,03,10,13,30,12.90
2003,03,10,13,31,12.80
2003,03,10,13,32,12.60
2003,03,10,13,33,12.50
2003,03,10,13,34,12.60
2003,03,10,13,35,12.60
2003,03,10,13,36,12.60
2003,03,10,13,37,12.60
2003,03,10,13,38,12.60
2003,03,10,13,39,12.60
2003,03,10,13,40,12.60
2003,03,10,13,41,12.60
2003,03,10,13,42,12.60
2003,03,10,13,43,12.60
2003,03,10,13,44,12.50
2003,03,10,13,45,12.60
2003,03,10,13,46,12.60
2003,03,10,13,47,12.50
2003,03,10,13,48,12.40
2003,03,10,13,49,12.50
2003,03,10,13,50,12.40
2003,03,10,13,51,12.40
2003,03,10,13,52,12.40
2003,03,10,13,53,12.40
2003,03,10,13,54,12.40
2003,03,10,13,55,12.40
2003,03,10,13,56,12.40
2003,03,10,13,57,12.40
2003,03,10,13,58,12.40
2003,03,10,13,59,12.40
2003,03,10,14,00,12.40
2003,03,10,14,01,12.40
2003,03,10,14,02,12.30
2003,03,10,14,03,12.20
2003,03,10,14,04,12.10
2003,03,10,14,05,12.10
2003,03,10,14,06,12.10
2003,03,10,14,07,12.00
2003,03,10,14,08,12.00
2003,03,10,14,09,11.90
2003,03,10,14,10,11.90
2003,03,10,14,11,11.90
2003,03,10,14,12,11.90
2003,03,10,14,13,11.90
2003,03,10,14,14,11.90
2003,03,10,14,15,11.90
2003,03,10,14,16,11.80
2003,03,10,14,17,11.90
2003,03,10,14,18,12.00
2003,03,10,14,19,12.00
2003,03,10,14,20,12.10
2003,03,10,14,21,12.20
2003,03,10,14,22,12.10
2003,03,10,14,23,12.10
2003,03,10,14,24,12.10
2003,03,10,14,25,12.10
2003,03,10,14,26,11.90
2003,03,10,14,27,11.80
2003,03,10,14,28,11.80
2003,03,10,14,29,11.80
2003,03,10,14,30,11.80
2003,03,10,14,31,11.70
2003,03,10,14,32,11.70
2003,03,10,14,33,11.70
2003,03,10,14,34,11.70
2003,03,10,14,35,11.60
2003,03,10,14,36,11.60
2003,03,10,14,37,11.60
2003,03,10,14,38,11.60
2003,03,10,14,39,11.50
2003,03,10,14,40,11.40
2003,03,10,14,41,11.40
2003,03,10,14,42,11.40
2003,03,10,14,43,11.40
2003,03,10,14,44,11.40
2003,03,10,14,45,11.40
2003,03,10,14,46,11.40
2003,03,10,14,47,11.40
2003,03,10,14,48,11.30
2003,03,10,14,49,11.20
2003,03,10,14,50,11.10
2003,03,10,14,51,11.10
2003,03,10,14,52,11.20
2003,03,10,14,53,11.10
2003,03,10,14,54,11.10
2003,03,10,14,55,11.10
2003,03,10,14,56,11.10
2003,03,10,14,57,11.20
2003,03,10,14,58,11.20
2003,03,10,14,59,11.20
2003,03,10,15,00,11.20
2003,03,10,15,01,11.30
2003,03,10,15,02,11.40
2003,03,10,15,03,11.30
2003,03,10,15,04,11.20
2003,03,10,15,05,11.10
2003,03,10,15,06,11.10
2003,03,10,15,07,11.00
2003,03,10,15,08,11.00
2003,03,10,15,09,10.90
2003,03,10,15,10,10.90
2003,03,10,15,11,10.90
2003,03,10,15,12,10.90
2003,03,10,15,13,10.90
2003,03,10,15,14,10.90
2003,03,10,15,15,10.90
2003,03,10,15,16,10.90
2003,03,10,15,17,10.90
2003,03,10,15,18,10.90
2003,03,10,15,19,10.90
2003,03,10,15,20,10.90
2003,03,10,15,21,10.90
2003,03,10,15,22,10.90
2003,03,10,15,23,10.90
2003,03,10,15,24,10.90
2003,03,10,15,25,10.90
2003,03,10,15,26,11.00
2003,03,10,15,27,11.00
2003,03,10,15,28,10.90
2003,03,10,15,29,11.00
2003,03,10,15,30,11.00
2003,03,10,15,31,11.00
2003,03,10,15,32,10.90
2003,03,10,15,33,10.90
2003,03,10,15,34,10.80
2003,03,10,15,35,10.80
2003,03,10,15,36,10.80
2003,03,10,15,37,10.80
2003,03,10,15,38,10.80
2003,03,10,15,39,10.70
2003,03,10,15,40,10.70
2003,03,10,15,41,10.70
2003,03,10,15,42,10.70
2003,03,10,15,43,10.70
2003,03,10,15,44,10.70
2003,03,10,15,45,10.60
2003,03,10,15,46,10.60
2003,03,10,15,47,10.60
2003,03,10,15,48,10.60
2003,03,10,15,49,10.60
2003,03,10,15,50,10.60
2003,03,10,15,51,10.60
2003,03,10,15,52,10.50
2003,03,10,15,53,10.50
2003,03,10,15,54,10.60
2003,03,10,15,55,10.60
2003,03,10,15,56,10.60
2003,03,10,15,57,10.50
2003,03,10,15,58,10.50
2003,03,10,15,59,10.50
2003,03,10,16,00,10.50
2003,03,10,16,01,10.40
2003,03,10,16,02,10.40
2003,03,10,16,03,10.40
2003,03,10,16,04,10.50
2003,03,10,16,05,10.50
2003,03,10,16,06,10.50
2003,03,10,16,07,10.50
2003,03,10,16,08,10.50
2003,03,10,16,09,10.50
2003,03,10,16,10,10.40
2003,03,10,16,11,10.40
2003,03,10,16,12,10.40
2003,03,10,16,13,10.40
2003,03,10,16,14,10.40
2003,03,10,16,15,10.50
2003,03,10,16,16,10.40
2003,03,10,16,17,10.40
2003,03,10,16,18,10.40
2003,03,10,16,19,10.40
2003,03,10,16,20,10.40
2003,03,10,16,21,10.40
2003,03,10,16,22,10.40
2003,03,10,16,23,10.40
2003,03,10,16,24,10.40
2003,03,10,16,25,10.40
2003,03,10,16,26,10.40
2003,03,10,16,27,10.40
2003,03,10,16,28,10.40
2003,03,10,16,29,10.50
2003,03,10,16,30,10.50
2003,03,10,16,31,10.50
2003,03,10,16,32,10.60
2003,03,10,16,33,10.60
2003,03,10,16,34,10.60
2003,03,10,16,35,10.60
2003,03,10,16,36,10.60
2003,03,10,16,37,10.60
2003,03,10,16,38,10.60
2003,03,10,16,39,10.60
2003,03,10,16,40,10.70
2003,03,10,16,41,10.60
2003,03,10,16,42,10.60
2003,03,10,16,43,10.60
2003,03,10,16,44,10.60
2003,03,10,16,45,10.60
2003,03,10,16,46,10.60
2003,03,10,16,47,10.60
2003,03,10,16,48,10.60
2003,03,10,16,49,10.60
2003,03,10,16,50,10.60
2003,03,10,16,51,10.60
2003,03,10,16,52,10.50
2003,03,10,16,53,10.50
2003,03,10,16,54,10.40
2003,03,10,16,55,10.50
2003,03,10,16,56,10.60
2003,03,10,16,57,10.60
2003,03,10,16,58,10.60
2003,03,10,16,59,10.60
2003,03,10,17,00,10.60
2003,03,10,17,01,10.60
2003,03,10,17,02,10.60
2003,03,10,17,03,10.60
2003,03,10,17,04,10.60
2003,03,10,17,05,10.60
2003,03,10,17,06,10.60
2003,03,10,17,07,10.60
2003,03,10,17,08,10.60
2003,03,10,17,09,10.60
2003,03,10,17,10,10.60
2003,03,10,17,11,10.60
2003,03,10,17,12,10.60
2003,03,10,17,13,10.60
2003,03,10,17,14,10.60
2003,03,10,17,15,10.70
2003,03,10,17,16,10.70
2003,03,10,17,17,10.70
2003,03,10,17,18,10.70
2003,03,10,17,19,10.70
2003,03,10,17,20,10.80
2003,03,10,17,21,10.80
2003,03,10,17,22,10.80
2003,03,10,17,23,10.80
2003,03,10,17,24,10.80
2003,03,10,17,25,10.90
2003,03,10,17,26,10.90
2003,03,10,17,27,10.90
2003,03,10,17,28,10.90
2003,03,10,17,29,10.90
2003,03,10,17,30,10.90
2003,03,10,17,31,11.10
2003,03,10,17,32,11.10
2003,03,10,17,33,11.10
2003,03,10,17,34,11.10
2003,03,10,17,35,11.20
2003,03,10,17,36,11.10
2003,03,10,17,37,11.20
2003,03,10,17,38,11.20
2003,03,10,17,39,11.20
2003,03,10,17,40,11.20
2003,03,10,17,41,11.20
2003,03,10,17,42,11.10
2003,03,10,17,43,11.10
2003,03,10,17,44,11.10
2003,03,10,17,45,11.10
2003,03,10,17,46,11.10
2003,03,10,17,47,11.10
2003,03,10,17,48,11.10
2003,03,10,17,49,11.10
2003,03,10,17,50,10.90
2003,03,10,17,51,10.90
2003,03,10,17,52,10.90
2003,03,10,17,53,10.90
2003,03,10,17,54,10.90
2003,03,10,17,55,10.90
2003,03,10,17,56,10.90
2003,03,10,17,57,10.90
2003,03,10,17,58,10.90
2003,03,10,17,59,10.90
2003,03,10,18,00,10.90
2003,03,10,18,01,10.90
2003,03,10,18,02,10.90
2003,03,10,18,03,10.90
2003,03,10,18,04,10.90
2003,03,10,18,05,10.90
2003,03,10,18,06,10.90
2003,03,10,18,07,10.90
2003,03,10,18,08,10.90
2003,03,10,18,09,10.90
2003,03,10,18,10,10.90
2003,03,10,18,11,10.90
2003,03,10,18,12,10.90
2003,03,10,18,13,10.90
2003,03,10,18,14,10.90
2003,03,10,18,15,10.90
2003,03,10,18,16,10.90
2003,03,10,18,17,10.90
2003,03,10,18,18,10.90
2003,03,10,18,19,10.90
2003,03,10,18,20,10.90
2003,03,10,18,21,10.90
2003,03,10,18,22,10.90
2003,03,10,18,23,11.00
2003,03,10,18,24,11.00
2003,03,10,18,25,11.10
2003,03,10,18,26,11.00
2003,03,10,18,27,11.10
2003,03,10,18,28,11.00
2003,03,10,18,29,11.10
2003,03,10,18,30,11.10
2003,03,10,18,31,11.10
2003,03,10,18,32,11.10
2003,03,10,18,33,11.00
2003,03,10,18,34,11.10
2003,03,10,18,35,11.10
2003,03,10,18,36,11.10
2003,03,10,18,37,11.10
2003,03,10,18,38,11.00
2003,03,10,18,39,11.10
2003,03,10,18,40,11.10
2003,03,10,18,41,11.10
2003,03,10,18,42,11.10
2003,03,10,18,43,11.00
2003,03,10,18,44,11.00
2003,03,10,18,45,10.90
2003,03,10,18,46,11.00
2003,03,10,18,47,11.00
2003,03,10,18,48,11.10